Wind_Speed
18 18 18 19 19 19 18 18 19 19 18 17 18 20 22 22 22 25 24 26 21 21 26 19 18 19 15 5 5 3 8 11 13 8 6 12 12 6 3 10 5 7 3 6 25
19 19 19 20 20 19 19 19 20 20 18 18 19 20 20 24 22 32 32 35 29 30 23 23 16 8 9 5 5 9 11 13 5 7 7 16 15 14 9 11 6 9 5 20 25
19 20 21 20 20 20 20 20 20 21 21 20 19 19 20 20 17 23 31 35 35 34 24 21 12 5 7 5 6 7 14 10 3 6 4 16 13 11 9 11 12 16 15 21 25
20 20 21 21 20 20 21 21 21 21 22 20 21 20 21 13 14 17 32 37 40 36 25 16 10 10 6 13 7 9 11 5 3 3 7 15 12 9 15 2 7 13 21 25 22
21 20 21 21 21 21 21 21 22 21 21 18 20 20 16 12 17 13 22 37 39 37 26 13 11 9 10 9 9 6 5 7 3 4 4 9 16 14 16 2 8 18 22 21 22
22 21 21 21 21 21 21 21 22 22 20 17 20 20 15 18 18 22 21 34 41 33 22 18 11 10 10 4 12 16 9 6 4 5 4 13 9 6 13 7 14 19 20 20 21
22 20 21 21 21 20 21 20 22 23 21 19 21 20 13 14 11 25 25 23 41 40 15 19 19 7 8 3 4 3 11 5 5 6 5 9 5 14 9 12 15 16 18 19 21
22 22 22 22 21 20 21 20 24 26 22 20 21 19 9 10 23 19 23 20 32 35 26 29 21 5 2 3 2 4 6 14 5 8 4 10 17 18 10 14 15 15 16 18 20
25 24 23 22 20 19 19 22 27 28 25 22 17 5 5 6 20 28 20 16 10 26 22 27 15 4 3 6 5 5 14 19 7 4 4 12 14 15 12 14 15 14 15 16 17
24 22 20 21 17 16 18 22 28 22 14 13 11 4 7 8 10 14 17 31 5 23 9 7 5 5 5 8 18 22 20 9 14 8 4 15 8 9 12 14 16 16 15 16 17
21 19 17 17 13 14 16 8 5 2 2 5 6 5 1 11 12 10 14 10 7 10 7 6 6 14 18 16 0 14 18 16 17 6 5 14 15 9 12 12 14 15 16 16 18
15 14 14 11 10 12 8 2 5 7 5 9 17 13 9 13 5 10 17 7 3 11 13 5 15 26 24 18 6 15 26 16 5 4 4 4 13 5 12 12 17 18 17 18 16
6 9 6 7 9 9 5 7 6 4 3 6 4 6 10 7 5 9 4 6 7 7 15 12 6 15 16 13 11 15 21 19 17 8 3 2 12 11 8 10 10 13 15 16 18
2 1 3 7 5 6 3 8 10 2 3 4 5 2 3 5 4 4 1 4 3 5 7 5 7 19 15 13 12 9 9 17 16 17 11 3 11 21 20 15 15 17 16 18 18
4 3 5 6 7 3 7 17 10 1 2 6 6 6 2 6 13 3 4 2 6 5 2 2 8 17 18 14 8 4 7 8 6 5 6 6 7 18 13 21 19 18 19 18 18
6 6 6 6 6 5 17 14 1 2 3 3 4 3 3 2 3 4 5 10 6 6 11 4 2 2 2 7 4 8 15 10 7 4 4 15 16 18 13 16 21 19 20 19 18
7 8 8 6 7 18 16 1 2 3 2 6 3 1 6 3 4 3 5 7 5 5 3 2 3 4 3 10 5 3 19 4 3 4 7 10 10 17 6 14 15 22 22 21 16
12 13 11 7 23 18 3 2 6 1 3 3 4 4 3 5 4 3 9 5 3 3 4 4 2 3 2 5 9 16 12 7 8 7 6 2 12 10 18 11 8 5 8 11 12
18 10 8 14 24 9 0 4 2 0 3 5 5 2 3 3 1 3 3 5 3 2 2 5 2 2 3 3 14 6 9 4 5 2 3 7 6 9 7 9 10 10 6 9 10
16 7 5 22 18 1 4 4 2 2 2 2 4 2 3 2 2 3 6 2 5 1 5 5 6 1 0 4 1 9 10 3 2 7 7 4 9 8 6 12 10 10 14 9 6
6 3 4 27 6 5 3 2 3 4 1 2 4 3 4 3 2 3 2 1 3 4 2 4 3 3 1 4 8 6 6 2 3 0 3 3 4 8 14 6 12 13 9 10 9
2 2 13 18 4 2 2 2 3 4 2 1 2 4 4 3 3 2 2 2 3 6 6 2 4 4 2 2 3 7 10 9 7 7 2 2 3 1 1 2 2 3 7 8 9
1 2 7 7 3 3 3 3 2 6 3 0 2 3 2 3 2 2 2 5 6 4 6 4 3 5 4 2 1 4 3 12 1 3 8 4 1 3 2 4 4 4 5 8 9
1 3 3 4 2 3 2 3 4 4 3 4 3 2 2 4 6 3 2 3 1 3 8 5 2 2 4 0 6 8 9 15 9 5 5 10 6 2 3 4 0 2 4 7 8
3 2 1 2 5 4 1 1 3 6 6 6 4 7 2 3 3 3 2 2 4 5 3 2 2 1 3 2 0 6 17 18 20 18 12 8 13 3 2 1 2 2 4 5 8
2 3 2 2 3 3 4 2 5 4 6 5 5 7 8 7 5 2 4 1 2 1 2 1 1 2 3 4 1 3 9 19 24 20 20 3 8 3 1 1 3 4 5 7 9
2 3 1 3 2 2 2 2 4 4 2 4 4 3 7 5 1 6 7 3 2 3 3 3 4 3 3 3 3 5 10 15 12 13 17 18 11 3 3 7 9 8 9 10 10
Wind_Direction
319 318 318 315 309 304 304 300 299 298 305 290 281 279 277 278 270 256 257 217 214 208 208 219 236 255 267 247 225 229 227 228 219 192 187 160 176 170 133 145 170 168 169 141 155
318 320 318 312 307 303 296 299 297 287 297 290 289 277 276 281 266 252 243 219 216 206 192 200 202 220 245 224 203 216 226 221 236 203 190 179 187 159 170 161 175 169 116 142 151
320 320 313 307 303 298 294 288 289 290 282 296 284 283 270 291 262 247 241 223 207 212 195 193 146 108 261 230 193 204 227 222 239 224 211 179 186 168 173 192 195 187 153 158 160
321 319 315 308 302 297 291 282 288 285 285 276 281 284 265 274 238 229 223 205 192 187 167 163 152 156 229 207 219 213 224 214 192 190 172 179 164 186 192 143 200 174 158 161 168
318 317 315 310 302 294 291 280 287 286 282 273 282 283 267 239 248 264 195 201 182 175 166 145 168 173 186 213 163 234 198 202 176 191 205 160 190 188 199 106 150 143 155 171 175
314 315 313 309 300 291 288 276 286 285 280 274 285 280 237 246 248 244 221 209 174 174 169 160 183 169 187 240 196 196 183 179 172 162 199 187 185 196 193 147 148 157 165 176 182
311 312 308 306 300 290 283 276 284 281 274 292 282 272 226 229 243 216 203 198 190 182 162 158 147 170 138 89 297 187 165 158 173 166 182 185 176 219 163 166 160 172 171 174 187
308 308 307 303 297 286 284 278 282 278 267 279 280 258 244 228 226 219 193 194 184 175 170 149 152 112 162 152 68 179 212 200 155 167 174 203 210 208 178 173 173 176 179 181 190
306 307 304 299 295 288 286 289 287 282 274 266 259 225 257 198 191 217 187 156 102 128 138 134 122 130 118 134 179 250 196 207 166 194 176 197 220 177 181 198 180 184 187 188 189
300 298 296 294 295 291 298 299 296 292 282 233 234 199 219 200 170 184 180 160 149 115 105 108 136 125 160 177 197 194 207 190 191 168 206 199 227 185 181 199 197 190 191 192 197
292 292 289 291 293 295 309 337 346 270 346 271 246 227 259 152 145 178 149 119 143 144 138 137 135 194 188 190 127 212 193 199 212 105 190 213 220 208 189 202 203 204 197 198 206
277 277 275 281 287 298 301 264 221 281 308 266 261 244 214 162 134 168 158 159 213 146 115 139 203 207 190 178 206 194 188 197 55 79 182 216 232 229 198 215 207 205 206 206 203
257 266 273 275 290 285 254 254 300 202 269 291 313 278 151 201 131 162 172 101 168 131 163 173 177 155 163 168 176 204 189 173 199 173 58 306 241 227 226 220 214 227 224 217 210
76 268 280 293 285 306 273 323 322 230 272 358 328 344 146 153 74 37 15 133 102 134 124 110 145 147 154 172 177 190 226 168 142 162 202 218 243 218 214 213 211 220 215 218 212
42 335 312 291 302 278 331 327 339 85 273 354 311 305 242 160 125 170 41 61 76 70 223 84 161 161 163 181 179 188 138 131 110 113 79 212 242 229 206 221 212 219 220 220 216
11 351 313 286 292 328 322 327 53 240 358 354 307 285 120 114 114 104 47 60 58 56 45 72 10 33 35 121 166 155 118 71 45 45 223 196 215 228 206 214 216 219 221 220 214
10 359 12 14 322 329 324 280 183 27 354 343 333 263 74 83 113 95 132 126 134 137 108 39 9 317 218 106 46 213 133 122 134 188 233 207 207 231 190 217 217 216 214 215 208
332 318 316 308 339 336 3 258 74 329 318 328 326 49 82 31 35 112 138 133 129 104 138 135 148 174 202 138 170 187 165 161 178 199 183 119 230 227 230 217 209 239 244 219 200
334 313 292 331 339 352 10 41 16 351 277 324 296 77 61 40 133 113 157 140 141 247 95 134 90 3 339 97 161 180 208 62 93 34 190 196 244 263 218 216 215 217 219 215 199
332 319 285 339 341 321 67 92 246 260 290 230 9 2 99 89 103 96 134 158 144 193 301 150 112 322 64 99 279 196 150 143 181 160 213 189 242 223 191 222 212 211 220 211 192
342 333 336 343 10 51 66 19 282 266 252 51 18 36 68 106 60 88 110 89 143 129 312 110 73 134 153 217 167 162 180 212 106 344 238 180 231 201 209 214 207 207 208 200 198
43 337 339 355 46 346 58 332 308 344 339 62 114 41 8 94 80 111 138 27 127 122 145 103 107 133 112 352 306 208 183 179 196 183 234 312 240 104 293 9 59 166 193 198 195
65 291 337 3 72 43 346 358 330 352 7 36 79 55 0 50 80 71 98 13 124 134 153 156 135 120 129 152 354 219 205 209 51 81 206 186 163 28 349 257 201 199 194 177 178
45 359 353 43 37 81 359 356 326 352 358 339 56 117 113 44 26 100 76 30 140 91 80 64 145 226 192 54 136 185 190 210 188 206 165 232 256 220 224 293 296 158 179 169 177
21 76 99 5 19 14 259 327 359 4 341 18 22 62 125 86 61 50 46 86 55 108 92 94 128 31 53 12 222 194 179 196 210 219 222 213 222 211 168 334 307 131 155 184 194
131 148 156 84 325 315 335 23 22 351 -0 11 42 8 71 92 73 111 167 47 112 140 99 182 80 95 12 10 327 210 201 199 210 216 229 280 242 321 329 266 241 225 189 214 218
126 103 124 6 359 310 1 1 31 344 39 45 341 6 57 61 92 105 102 110 83 168 161 130 141 158 162 322 307 264 210 208 210 222 221 229 232 275 275 253 247 224 201 211 212
Height
815 812 810 808 807 806 805 805 805 804 803 804 803 802 802 801 800 798 790 796 801 800 803 812 818 821 822 815 811 808 809 807 799 802 794 799 801 803 805 806 809 812 811 815 825
812 809 806 805 805 803 802 801 801 800 800 799 798 798 798 797 795 785 786 790 794 795 798 809 813 819 819 810 808 804 805 800 790 786 789 794 791 800 803 808 809 812 817 819 826
807 805 803 802 801 800 798 798 797 796 796 795 794 793 794 794 790 769 777 782 785 787 793 805 808 815 815 806 802 799 800 793 790 788 787 791 794 795 797 808 798 802 814 821 826
804 802 800 798 796 795 795 794 793 792 791 790 789 788 789 791 776 761 768 774 779 784 792 797 806 814 820 806 802 802 792 793 791 792 792 792 789 796 792 790 790 796 809 818 823
801 799 796 793 791 790 791 789 788 787 785 785 784 785 785 778 767 762 763 768 772 779 781 789 800 805 812 799 803 804 793 793 793 793 791 790 791 789 792 793 795 801 811 817 821
797 795 792 789 787 787 786 785 784 782 780 780 779 780 779 766 763 761 764 764 762 773 780 785 790 799 804 804 795 798 792 792 792 792 793 791 793 794 789 795 798 802 808 815 819
793 792 788 785 784 783 781 779 778 777 774 773 773 773 765 755 756 757 757 758 759 763 773 777 788 794 799 803 798 795 791 792 791 792 793 790 802 795 785 793 797 801 805 812 817
789 787 783 780 779 778 777 773 771 769 768 767 766 765 751 750 753 757 752 753 753 761 769 772 784 796 793 802 799 795 788 792 792 792 795 791 792 784 790 791 795 799 802 807 813
784 781 779 776 775 773 771 768 764 760 760 760 761 759 750 748 748 747 748 747 747 757 768 774 779 793 795 797 805 799 794 785 793 792 794 791 781 778 789 789 790 796 800 804 809
778 776 774 773 772 769 767 765 757 753 750 753 755 757 748 736 740 744 745 745 751 750 764 772 784 789 791 794 781 779 788 792 784 791 796 792 787 787 791 790 785 791 796 801 804
772 771 770 769 768 767 765 762 761 753 749 745 739 731 731 734 739 740 737 740 746 743 756 767 774 778 781 781 782 777 783 784 781 794 795 792 786 786 790 793 787 787 791 795 798
765 765 765 765 765 764 763 762 761 758 750 741 737 734 730 734 733 740 740 738 745 742 756 771 762 752 762 774 784 785 773 787 798 800 799 799 792 792 791 786 781 782 786 789 795
761 762 763 764 764 762 762 759 757 755 750 741 735 731 727 732 729 736 737 738 747 745 749 753 752 756 769 781 787 781 773 774 786 803 806 802 791 789 785 785 785 786 782 785 788
762 763 762 762 764 758 758 758 754 754 745 743 735 729 730 726 734 734 739 744 750 748 749 758 760 760 769 778 779 786 771 772 789 791 805 812 787 767 773 779 782 778 782 781 784
766 764 762 763 761 759 758 754 752 753 720 748 741 735 731 729 735 738 740 742 744 753 751 765 764 762 772 771 781 783 773 784 791 805 808 810 807 756 772 772 768 770 771 774 775
768 765 763 763 760 759 756 752 752 745 728 744 745 733 730 731 736 738 739 739 755 760 761 771 772 770 769 773 774 779 778 801 813 819 818 791 795 758 762 761 757 758 761 765 770
769 766 763 762 762 757 753 753 744 737 757 749 745 734 733 735 733 738 742 751 754 760 766 778 783 780 773 773 781 776 776 810 816 818 792 782 798 751 747 749 746 747 752 756 763
769 765 763 761 758 752 752 751 738 756 757 759 751 739 741 742 739 738 741 749 757 751 763 758 775 777 769 773 780 775 762 778 784 790 781 812 782 745 743 744 753 757 754 754 763
766 763 760 759 754 749 750 748 758 759 764 757 752 738 743 745 742 740 744 748 749 748 741 759 774 784 782 777 771 787 778 777 786 822 780 768 764 745 750 751 757 755 761 758 760
766 762 758 755 750 749 753 759 764 763 763 763 741 742 736 745 742 743 746 749 752 755 750 752 769 790 786 782 784 777 774 784 785 790 775 769 758 740 744 744 747 755 756 756 762
766 764 757 753 750 752 761 765 768 762 763 759 756 746 743 745 748 746 751 755 750 756 754 749 752 789 790 784 778 783 783 783 776 784 764 765 742 730 728 729 731 740 751 753 761
769 769 757 753 759 776 767 772 764 760 761 760 760 758 751 747 749 750 751 750 750 753 755 756 768 772 780 786 783 770 771 768 761 783 785 784 741 747 744 745 745 747 751 754 759
773 771 760 757 764 773 774 768 766 764 763 759 758 760 759 753 748 755 757 754 752 755 756 758 765 767 776 786 794 782 780 762 765 769 776 766 746 748 748 749 750 749 752 756 760
775 772 770 771 783 779 781 780 771 763 762 760 756 755 757 761 757 755 757 757 757 758 761 762 767 756 745 749 756 771 773 765 761 766 758 749 739 739 743 744 744 747 752 753 760
782 793 794 784 784 784 780 778 771 772 765 761 756 756 756 761 763 763 760 762 761 762 765 768 762 764 764 761 757 750 756 763 762 755 753 742 745 739 742 741 744 747 751 755 756
781 785 792 792 791 785 782 781 776 772 770 765 765 762 755 761 763 766 764 764 762 767 766 766 768 769 771 765 758 756 753 753 752 757 755 760 751 745 747 749 747 747 751 753 754
782 784 782 792 794 784 786 781 778 776 772 772 770 765 767 769 768 765 768 769 768 764 766 766 773 770 764 777 762 756 753 751 751 750 750 751 747 748 747 748 746 742 745 746 750